Wind_Speed
6 5 4 3 2 2 2 2 1 1 3 3 3 5 7 6 7 6 6 7 7 7 8 8 8 8 8 8 9 9 8 8 7 6 6 6 6 6 6 6 6 6 6 7
9 7 6 6 6 4 4 4 1 0 2 3 3 3 6 6 5 6 6 6 6 6 7 7 7 7 7 8 9 9 9 8 7 7 6 6 7 6 6 7 6 6 7 7
11 8 8 7 6 6 6 4 4 4 1 4 4 4 5 4 6 6 6 5 5 5 5 7 6 6 7 7 8 8 8 8 8 7 7 7 7 7 7 6 6 7 8 7
11 11 11 11 10 9 8 6 7 6 5 6 4 5 6 5 5 6 5 5 5 5 6 6 6 7 7 7 7 7 7 7 8 7 7 7 7 7 7 7 7 7 7 8
12 13 13 13 12 10 9 8 8 8 7 7 6 6 5 7 7 7 6 6 5 5 6 6 7 7 7 7 7 7 7 7 7 7 7 7 7 7 8 8 7 7 8 8
16 15 14 14 13 11 11 11 10 8 6 7 7 7 7 7 7 7 8 8 7 6 6 7 8 7 7 7 7 7 7 7 7 7 7 7 7 7 8 8 8 8 8 8
16 15 15 14 14 13 13 12 11 10 9 8 8 8 9 9 8 8 9 9 8 8 7 8 8 8 8 8 7 7 7 7 7 7 7 7 7 8 8 8 9 9 9 10
16 16 16 16 16 16 14 13 12 11 8 8 9 10 11 11 10 10 10 11 10 9 8 8 8 9 9 8 8 8 8 7 7 8 8 8 8 8 8 9 10 10 10 10
17 17 17 18 18 17 15 15 14 13 11 11 11 12 13 12 10 10 10 11 10 9 8 9 9 10 10 9 9 9 9 8 8 8 9 9 9 9 9 10 10 11 11 12
19 18 16 17 17 17 16 15 14 14 14 14 13 12 13 12 12 13 12 12 11 10 8 10 10 10 11 11 10 10 10 9 9 9 9 9 10 10 10 10 11 11 12 13
20 20 19 18 17 16 16 16 16 16 15 14 15 13 14 12 13 14 13 13 12 11 9 11 11 11 11 12 11 11 12 11 11 11 10 10 10 11 11 12 12 12 13 14
22 21 21 19 18 18 17 17 18 18 17 17 17 16 15 15 15 15 15 15 14 13 13 13 13 12 13 13 13 12 12 12 12 12 12 12 12 12 13 13 13 14 14 15
23 23 21 18 18 19 19 19 19 17 18 19 18 15 15 16 17 17 17 18 16 15 15 15 14 14 14 14 13 13 13 13 13 13 13 13 13 14 14 14 14 15 16 16
25 25 25 21 19 19 19 18 19 19 18 19 18 16 16 17 17 18 18 18 17 17 17 16 15 16 15 15 14 14 14 13 13 13 14 14 15 15 15 16 16 17 17 17
26 26 26 25 21 20 18 17 19 20 19 19 18 19 17 18 20 20 20 19 19 18 18 18 18 18 17 16 16 15 15 15 14 15 15 16 17 17 17 17 18 18 19 19
27 28 27 26 23 22 21 19 19 20 20 21 21 20 20 22 23 22 21 21 20 20 19 19 19 19 18 18 17 17 17 16 17 17 17 17 18 18 18 19 19 20 20 20
28 29 28 27 24 24 24 21 21 22 24 24 24 23 23 24 25 25 24 23 22 21 21 21 21 21 20 20 19 18 18 18 18 18 19 19 19 19 20 20 21 21 21 21
28 28 29 28 26 27 25 24 23 23 25 25 26 26 24 25 26 26 25 25 24 23 23 23 22 22 22 21 21 21 20 20 20 20 20 21 21 21 21 21 22 22 22 22
29 29 29 29 27 27 26 25 23 24 25 25 25 26 26 26 28 27 27 26 26 24 24 24 23 23 23 23 22 22 22 22 22 22 22 22 22 22 21 22 22 23 23 23
29 29 29 29 28 27 27 26 25 25 26 27 27 28 28 27 27 28 28 27 27 27 26 26 25 24 24 24 24 23 23 23 22 22 23 22 22 23 23 23 23 24 24 24
30 30 30 30 29 29 28 27 26 27 28 28 29 29 28 29 28 29 28 28 28 27 27 27 27 26 26 25 25 25 24 24 24 23 23 22 22 23 23 23 24 25 25 25
31 32 32 32 31 31 30 28 28 29 29 29 29 29 29 29 29 29 29 29 29 27 27 27 27 27 28 28 28 27 26 25 24 24 24 24 24 25 25 24 25 26 26 26
32 32 32 32 32 32 32 31 30 30 32 32 31 30 29 30 30 30 30 30 30 29 29 28 28 29 29 29 28 28 26 26 26 26 26 26 26 27 26 26 27 27 27 28
33 33 34 34 34 35 34 33 33 33 33 33 32 32 31 31 30 31 31 31 31 31 31 30 30 30 29 29 28 27 28 28 27 27 28 28 28 29 29 29 29 29 29 29
34 33 35 35 34 34 35 35 35 34 33 33 33 33 32 32 32 31 31 31 31 31 31 31 30 30 30 29 28 28 28 28 29 29 30 30 31 31 31 30 30 30 30 31
33 33 35 35 35 36 36 36 36 36 35 34 34 34 33 32 32 33 32 31 31 31 31 30 30 30 29 29 29 29 30 30 30 30 31 32 32 32 31 30 30 30 31 32
Wind_Direction
214 212 225 232 241 262 287 258 120 23 333 333 327 335 351 358 360 4 17 26 25 30 38 38 37 35 37 39 39 37 35 37 35 31 29 27 24 22 20 18 21 22 21 18
215 223 221 215 232 241 238 249 286 214 301 304 297 320 329 339 345 349 357 8 14 14 23 30 28 29 32 31 28 28 27 24 26 26 26 20 16 13 10 8 9 8 5 1
213 222 232 228 236 246 249 222 221 229 257 319 338 332 328 323 335 336 342 350 5 4 8 16 25 30 25 15 13 15 16 16 19 19 15 11 11 9 3 2 2 358 356 354
218 220 224 234 230 234 243 232 215 214 222 264 293 305 313 326 325 326 330 342 347 351 359 359 5 7 7 3 360 1 6 8 8 6 6 2 3 4 2 0 356 351 352 353
228 227 227 235 236 227 231 238 232 231 223 232 265 281 282 303 301 313 314 319 319 328 344 349 349 350 349 351 350 353 357 357 356 355 357 357 357 357 358 0 354 350 347 345
227 228 233 235 236 229 229 238 246 246 245 245 261 265 265 277 287 300 304 309 319 324 327 336 336 337 337 339 342 343 344 344 344 346 348 349 350 350 351 353 351 349 349 349
231 231 235 236 235 236 233 239 247 244 247 248 262 260 267 278 287 295 297 299 305 310 315 323 327 329 327 329 331 333 334 338 338 339 338 339 340 339 340 341 341 340 341 342
232 236 235 236 235 239 237 238 246 251 246 255 265 269 277 273 274 279 285 291 292 297 303 312 318 318 318 320 323 323 324 328 332 333 332 329 328 329 331 331 332 334 334 334
223 233 238 239 236 237 236 235 241 252 251 246 247 261 272 277 278 279 282 286 289 294 298 306 311 312 314 316 318 320 320 320 321 323 323 323 324 324 324 325 327 328 331 332
219 223 230 240 237 239 239 240 239 238 244 246 243 250 266 269 272 276 276 280 285 287 291 299 302 305 308 310 313 317 319 317 315 314 313 314 316 316 316 321 324 326 328 328
227 224 224 236 241 241 239 243 240 242 243 247 251 256 262 262 267 274 277 279 281 283 289 290 290 296 299 300 304 307 309 310 309 308 306 307 308 310 313 316 319 320 320 322
228 228 228 230 237 242 239 236 239 243 245 246 247 253 262 261 262 266 267 272 277 277 280 284 288 293 294 295 297 299 301 301 301 301 301 301 304 307 311 314 315 316 317 318
228 227 229 229 232 239 240 238 238 242 247 252 253 254 260 264 267 267 263 266 274 276 278 281 285 290 292 292 293 294 296 297 296 297 297 298 300 303 306 308 310 313 315 316
233 231 230 224 226 237 242 240 238 236 241 248 252 251 252 261 263 263 265 263 267 270 275 279 283 287 289 287 286 289 291 293 293 294 295 295 296 298 300 302 304 308 310 312
235 234 233 227 223 231 237 239 238 236 239 244 248 249 246 252 259 262 266 266 266 269 273 276 280 282 284 284 284 287 288 289 291 293 293 293 292 293 296 299 300 302 305 308
233 237 235 232 231 234 233 235 241 243 242 243 245 250 251 250 255 262 265 266 267 270 272 273 276 279 281 283 283 284 283 284 287 289 291 290 291 293 295 296 297 299 302 304
236 237 238 239 237 240 236 236 239 244 243 243 245 246 249 254 258 263 266 267 267 268 270 273 273 274 276 278 280 282 281 282 284 285 288 288 288 290 292 293 296 298 301 302
237 237 239 239 239 242 240 240 240 240 242 243 245 245 249 256 260 264 266 266 268 268 270 271 272 273 272 273 275 278 279 281 282 284 286 288 287 287 289 291 295 297 299 300
237 238 238 239 241 244 242 242 240 240 242 245 245 248 251 254 259 261 263 265 267 267 269 271 272 271 270 271 273 274 277 279 281 282 284 285 287 286 286 290 294 296 297 298
238 240 240 240 241 242 241 241 241 244 246 248 249 251 253 255 256 259 261 264 266 265 267 271 272 271 270 270 271 272 275 277 279 282 284 286 286 286 286 288 291 294 296 296
240 243 242 241 241 244 243 241 241 245 246 248 251 253 254 257 258 261 262 263 265 266 266 268 270 269 269 269 271 273 276 278 280 281 284 286 288 288 287 288 290 293 295 296
242 242 242 241 240 242 244 244 242 244 247 249 251 253 254 256 258 260 261 261 264 267 267 268 268 269 269 269 270 272 274 276 277 279 282 285 286 287 289 290 290 291 293 295
241 241 241 243 242 242 245 247 247 247 249 250 252 255 258 259 258 260 261 260 262 266 267 268 269 270 270 270 270 271 272 273 274 277 280 283 285 285 287 288 288 289 291 293
241 239 239 241 242 242 244 247 249 250 251 252 253 256 259 260 260 261 262 262 262 265 266 267 268 269 270 269 270 270 272 273 274 277 280 282 284 285 286 287 288 289 290 291
240 241 241 241 242 242 243 245 247 249 251 253 255 257 259 260 260 261 262 263 263 264 265 266 268 268 270 270 270 271 271 272 275 277 279 281 282 284 285 285 285 287 288 290
240 242 244 244 243 244 246 248 249 251 253 254 256 257 259 260 261 261 263 264 263 264 263 263 266 268 270 270 270 270 271 272 273 275 277 279 281 284 283 283 284 286 288 290
Height
5909 5911 5912 5913 5915 5917 5918 5918 5919 5919 5918 5918 5917 5916 5914 5914 5913 5911 5911 5910 5910 5909 5908 5907 5907 5906 5905 5905 5905 5904 5904 5903 5903 5902 5902 5901 5901 5901 5900 5900 5899 5898 5898 5897
5909 5910 5912 5914 5915 5917 5918 5917 5918 5919 5919 5918 5917 5917 5916 5915 5914 5913 5912 5911 5911 5910 5909 5909 5908 5907 5906 5906 5906 5906 5905 5904 5904 5903 5903 5902 5902 5901 5901 5900 5899 5899 5898 5897
5907 5911 5912 5913 5915 5916 5916 5917 5919 5919 5918 5918 5918 5917 5917 5915 5915 5913 5913 5912 5911 5911 5911 5910 5908 5908 5908 5907 5907 5906 5906 5905 5905 5904 5904 5903 5902 5902 5901 5901 5900 5899 5898 5897
5906 5908 5911 5912 5914 5915 5916 5916 5916 5917 5918 5917 5918 5918 5916 5916 5915 5914 5913 5912 5911 5911 5911 5911 5910 5909 5909 5908 5908 5907 5906 5905 5905 5904 5904 5903 5903 5902 5902 5901 5900 5899 5898 5897
5904 5906 5908 5910 5911 5913 5914 5914 5914 5915 5915 5916 5917 5918 5917 5916 5915 5914 5913 5913 5912 5911 5911 5911 5911 5910 5909 5909 5908 5907 5907 5906 5905 5905 5904 5904 5903 5902 5902 5901 5900 5899 5898 5897
5901 5904 5906 5908 5909 5911 5912 5913 5912 5913 5913 5915 5916 5917 5916 5915 5914 5914 5913 5913 5911 5911 5911 5911 5910 5910 5909 5909 5908 5907 5906 5906 5905 5905 5904 5904 5903 5902 5902 5901 5900 5899 5898 5897
5898 5900 5903 5905 5907 5909 5909 5910 5910 5911 5912 5914 5915 5915 5916 5914 5914 5914 5913 5912 5912 5911 5911 5911 5910 5910 5909 5908 5907 5907 5906 5905 5905 5904 5904 5903 5903 5902 5901 5900 5899 5898 5897 5896
5895 5899 5900 5902 5905 5906 5907 5908 5909 5910 5911 5913 5913 5913 5915 5914 5913 5913 5912 5912 5911 5911 5910 5910 5910 5909 5908 5907 5906 5906 5905 5905 5904 5904 5903 5902 5902 5901 5900 5899 5898 5897 5896 5895
5893 5896 5898 5899 5901 5903 5904 5906 5908 5908 5909 5910 5911 5911 5912 5911 5911 5911 5911 5910 5909 5908 5909 5909 5908 5908 5907 5906 5905 5905 5904 5904 5903 5903 5902 5901 5900 5900 5899 5898 5897 5896 5895 5893
5888 5891 5894 5896 5897 5899 5901 5903 5905 5906 5906 5906 5907 5908 5910 5908 5909 5909 5908 5907 5907 5906 5906 5907 5907 5906 5906 5905 5904 5904 5903 5902 5902 5901 5901 5900 5899 5899 5898 5896 5895 5894 5893 5891
5882 5886 5890 5892 5893 5896 5898 5900 5900 5902 5902 5904 5905 5907 5905 5906 5906 5906 5905 5905 5905 5904 5904 5905 5905 5904 5904 5904 5903 5902 5901 5901 5900 5899 5899 5898 5897 5897 5896 5895 5894 5892 5891 5889
5878 5882 5884 5887 5890 5892 5894 5896 5898 5899 5899 5900 5901 5904 5902 5901 5902 5903 5903 5902 5902 5902 5903 5902 5902 5902 5902 5901 5901 5900 5899 5898 5898 5897 5896 5896 5895 5894 5894 5893 5891 5890 5888 5887
5873 5876 5879 5883 5887 5888 5889 5891 5893 5895 5896 5896 5897 5900 5899 5897 5898 5899 5899 5899 5898 5899 5900 5900 5899 5899 5899 5898 5898 5897 5896 5896 5895 5894 5894 5893 5893 5892 5891 5890 5889 5887 5886 5884
5868 5870 5874 5878 5881 5882 5883 5886 5888 5890 5892 5892 5894 5895 5895 5894 5894 5895 5894 5895 5895 5895 5896 5896 5896 5896 5896 5895 5894 5894 5893 5893 5892 5892 5891 5890 5890 5889 5888 5887 5885 5884 5882 5881
5862 5864 5867 5870 5873 5876 5879 5881 5883 5885 5887 5888 5889 5890 5891 5890 5889 5889 5890 5891 5891 5892 5892 5892 5892 5892 5892 5891 5891 5890 5890 5889 5889 5888 5887 5887 5886 5885 5884 5883 5882 5880 5879 5877
5856 5858 5861 5864 5868 5870 5873 5876 5878 5880 5882 5883 5883 5884 5885 5884 5884 5884 5885 5886 5887 5887 5888 5888 5888 5888 5887 5887 5887 5886 5886 5886 5885 5884 5883 5883 5882 5881 5880 5879 5878 5876 5874 5872
5849 5852 5855 5858 5862 5864 5867 5870 5872 5875 5876 5878 5878 5879 5879 5880 5880 5880 5881 5881 5882 5882 5883 5883 5883 5883 5883 5883 5883 5882 5882 5881 5881 5880 5879 5878 5877 5877 5876 5874 5873 5871 5870 5868
5843 5846 5849 5852 5855 5857 5862 5864 5866 5868 5869 5870 5871 5871 5873 5874 5874 5875 5876 5876 5877 5877 5877 5877 5877 5877 5877 5877 5877 5877 5877 5876 5876 5875 5874 5873 5873 5871 5870 5869 5868 5866 5864 5863
5836 5839 5842 5845 5848 5851 5854 5856 5859 5861 5862 5863 5864 5865 5867 5868 5867 5868 5869 5870 5871 5871 5871 5871 5871 5871 5871 5872 5872 5872 5871 5871 5870 5869 5869 5868 5867 5866 5865 5864 5862 5861 5859 5857
5829 5832 5836 5839 5842 5845 5847 5849 5852 5855 5855 5856 5858 5858 5860 5861 5861 5861 5863 5863 5864 5864 5865 5865 5865 5865 5865 5865 5865 5866 5866 5865 5865 5864 5863 5862 5861 5860 5859 5858 5856 5855 5853 5851
5822 5825 5828 5832 5835 5836 5839 5841 5845 5848 5848 5849 5850 5852 5853 5854 5854 5855 5856 5857 5857 5857 5858 5858 5858 5858 5859 5859 5859 5860 5859 5859 5859 5858 5857 5856 5855 5854 5852 5851 5850 5848 5847 5845
5815 5818 5821 5824 5827 5831 5831 5834 5836 5837 5838 5840 5842 5844 5846 5846 5847 5848 5849 5850 5850 5850 5850 5851 5851 5852 5852 5852 5852 5852 5853 5852 5852 5851 5850 5850 5848 5847 5846 5845 5843 5842 5840 5839
5807 5811 5813 5816 5820 5821 5822 5825 5827 5830 5831 5833 5835 5836 5838 5838 5839 5840 5841 5842 5842 5843 5843 5844 5844 5844 5845 5844 5844 5845 5845 5845 5844 5844 5844 5843 5842 5840 5839 5838 5836 5834 5833 5831
5798 5802 5804 5806 5809 5811 5814 5817 5819 5821 5823 5825 5827 5829 5830 5831 5832 5833 5834 5834 5835 5835 5836 5836 5836 5837 5837 5837 5836 5836 5837 5837 5837 5837 5836 5835 5834 5832 5831 5830 5828 5827 5825 5823
5788 5792 5794 5797 5801 5802 5805 5808 5811 5813 5815 5817 5818 5820 5821 5823 5824 5824 5825 5826 5827 5827 5828 5828 5828 5829 5829 5829 5829 5829 5829 5829 5829 5828 5828 5827 5825 5824 5823 5822 5820 5818 5817 5815
5780 5783 5786 5788 5792 5794 5797 5799 5802 5804 5806 5808 5810 5811 5813 5814 5815 5816 5816 5817 5818 5819 5819 5820 5820 5820 5821 5821 5821 5821 5821 5821 5821 5820 5819 5818 5817 5816 5814 5813 5811 5810 5808 5807